DW9161 Weather Reports


Display with metric or nautical units.
time (UTC)temp
F
wind
direction
speed
MPH
gust
MPH
rain 1hr
in
rain 24hr
in
rain mn
in
humidity
%
barometer
mb
20260904040607 83 144 2.0 4.0 0.00 0.01 0.01 68 1010.3
20260904040043 83 127 2.0 4.0 0.00 0.01 0.01 68 1010.3
20260904035544 83 146 2.0 5.0 0.00 0.01 0.01 68 1010.3
20260904035040 83 162 2.0 5.0 0.00 0.01 0.01 68 1010.4
20260904034539 83 143 2.0 5.0 0.00 0.01 0.01 68 1010.4
20260904034057 84 163 2.0 4.0 0.00 0.01 0.01 68 1010.4
20260904033533 84 159 2.0 5.0 0.00 0.01 0.01 68 1010.4
20260904033052 84 162 2.0 5.0 0.00 0.01 0.01 68 1010.4
20260904032546 84 177 2.0 5.0 0.00 0.01 0.01 68 1010.4
20260904032042 84 149 2.0 4.0 0.00 0.01 0.01 67 1010.4
20260904031540 84 153 2.0 4.0 0.00 0.01 0.01 67 1010.3
20260904031053 84 160 2.0 4.0 0.00 0.01 0.01 67 1010.3
20260904030606 85 161 2.0 5.0 0.00 0.01 0.01 67 1010.3
20260904030043 85 148 2.0 5.0 0.00 0.01 0.01 67 1010.2
20260904025539 85 146 2.0 4.0 0.00 0.01 0.01 67 1010.2
20260904025037 85 153 2.0 4.0 0.00 0.01 0.01 66 1010.2
20260904024535 85 143 2.0 4.0 0.00 0.01 0.01 66 1010.2
20260904023532 85 124 2.0 6.0 0.00 0.01 0.01 66 1010.1
20260904023034 85 177 2.0 5.0 0.00 0.01 0.01 66 1010.0
20260904022531 85 148 2.0 4.0 0.00 0.01 0.01 65 1010.1
20260904022110 86 148 2.0 4.0 0.00 0.01 0.01 65 1010.1
20260904021547 86 147 2.0 4.0 0.00 0.01 0.01 65 1010.0
20260904021044 86 146 2.0 5.0 0.00 0.01 0.01 64 1010.0
20260904020609 86 147 2.0 5.0 0.00 0.01 0.01 64 1010.0
20260904020044 86 173 2.0 4.0 0.00 0.01 0.01 64 1009.9
20260904015603 86 181 2.0 4.0 0.00 0.01 0.01 64 1009.8
20260904015038 87 207 2.0 4.0 0.00 0.01 0.01 64 1009.9
20260904014535 87 142 2.0 4.0 0.00 0.01 0.01 63 1009.7
20260904014032 87 142 2.0 4.0 0.00 0.01 0.01 63 1009.6
20260904013547 87 142 2.0 4.0 0.00 0.01 0.01 63 1009.6
20260904013043 88 135 2.0 6.0 0.00 0.01 0.01 62 1009.5
20260904012558 88 117 2.0 6.0 0.00 0.01 0.01 62 1009.5
20260904012034 88 185 3.0 6.0 0.00 0.01 0.01 61 1009.4
20260904011532 88 125 2.0 5.0 0.00 0.01 0.01 61 1009.4
20260904011048 89 177 2.0 5.0 0.00 0.01 0.01 61 1009.3
20260904010557 89 139 3.0 5.0 0.00 0.01 0.01 60 1009.2
20260904010035 89 127 3.0 6.0 0.00 0.01 0.01 60 1009.2
20260904005612 89 98 3.0 6.0 0.00 0.01 0.01 60 1009.2
20260904005109 89 163 2.0 8.0 0.00 0.01 0.01 59 1009.2
20260904004547 90 169 2.0 9.0 0.00 0.01 0.01 59 1009.1
20260904004043 90 134 3.0 9.0 0.00 0.01 0.01 59 1009.2
20260904003541 90 194 2.0 9.0 0.00 0.01 0.01 59 1009.1
20260904003057 90 163 3.0 8.0 0.00 0.01 0.01 59 1009.1
20260904002606 91 192 2.0 8.0 0.00 0.01 0.01 59 1009.1
20260904002104 91 161 2.0 7.0 0.00 0.01 0.01 58 1009.0
20260904001543 91 146 3.0 11.0 0.00 0.01 0.01 58 1009.1
20260904001040 92 138 3.0 11.0 0.00 0.01 0.01 58 1009.1
20260904000634 92 148 2.0 7.0 0.00 0.01 0.01 58 1009.0
20260904000107 92 117 3.0 7.0 0.00 0.01 0.01 57 1009.0
20260903235542 93 160 3.0 6.0 0.00 0.01 0.01 57 1008.9
20260903235038 93 166 3.0 5.0 0.00 0.01 0.01 56 1009.0
20260903234535 93 169 2.0 7.0 0.00 0.01 0.01 56 1008.9
20260903234050 93 144 2.0 4.0 0.00 0.01 0.01 55 1008.9
20260903233545 94 161 2.0 8.0 0.00 0.01 0.01 55 1008.9
20260903233104 94 168 3.0 12.0 0.00 0.01 0.01 54 1008.9
20260903232537 94 157 3.0 12.0 0.00 0.01 0.01 55 1008.9
20260903232054 94 169 2.0 7.0 0.00 0.01 0.01 55 1008.8
20260903231548 95 117 3.0 7.0 0.00 0.01 0.01 54 1008.8
20260903231044 95 202 2.0 6.0 0.00 0.01 0.01 55 1008.8
20260903230552 95 157 2.0 6.0 0.00 0.01 0.01 55 1008.7
20260903230110 95 191 2.0 6.0 0.00 0.01 0.01 56 1008.7
20260903225545 95 141 3.0 8.0 0.00 0.01 0.01 54 1008.7
20260903225040 95 167 3.0 13.0 0.00 0.01 0.01 54 1008.8
20260903224535 95 131 5.0 13.0 0.00 0.01 0.01 53 1008.6
20260903224051 95 179 2.0 11.0 0.00 0.01 0.01 54 1008.6
20260903223548 95 196 5.0 17.0 0.00 0.01 0.01 53 1008.6
20260903223043 95 131 7.0 17.0 0.00 0.01 0.01 52 1008.5
20260903222539 95 195 3.0 14.0 0.00 0.01 0.01 51 1008.5
20260903222039 95 209 6.0 16.0 0.00 0.01 0.01 52 1008.5
20260903221536 95 161 5.0 16.0 0.00 0.01 0.01 52 1008.5
20260903221031 95 203 6.0 15.0 0.00 0.01 0.01 52 1008.5
20260903220603 95 193 5.0 18.0 0.00 0.01 0.01 53 1008.5
20260903220036 95 162 7.0 18.0 0.00 0.01 0.01 52 1008.5
20260903215533 96 158 5.0 12.0 0.00 0.01 0.01 51 1008.6
20260903215049 96 130 5.0 13.0 0.00 0.01 0.01 51 1008.5
20260903214546 96 196 6.0 13.0 0.00 0.01 0.01 52 1008.5
20260903214041 96 193 6.0 18.0 0.00 0.01 0.01 51 1008.6
20260903213538 96 187 8.0 18.0 0.00 0.01 0.01 50 1008.7
20260903213033 96 207 6.0 15.0 0.00 0.01 0.01 50 1008.7
20260903212549 96 204 6.0 17.0 0.00 0.01 0.01 50 1008.8
20260903212045 96 143 8.0 17.0 0.00 0.01 0.01 51 1008.8
20260903211541 96 200 7.0 14.0 0.00 0.01 0.01 50 1008.8
20260903211037 96 208 4.0 11.0 0.00 0.01 0.01 50 1008.8
20260903210608 96 192 4.0 18.0 0.00 0.01 0.01 50 1008.9
20260903210045 96 157 8.0 18.0 0.00 0.01 0.01 50 1009.0
20260903205603 97 149 6.0 13.0 0.00 0.01 0.01 49 1009.0
20260903204540 96 198 5.0 12.0 0.00 0.01 0.01 52 1009.0
20260903204036 96 183 6.0 16.0 0.00 0.01 0.01 52 1009.1
20260903203553 96 200 7.0 15.0 0.00 0.01 0.01 50 1009.1
20260903203048 96 146 5.0 15.0 0.00 0.01 0.01 50 1009.2
20260903202542 96 186 6.0 15.0 0.00 0.01 0.01 51 1009.2
20260903202038 96 195 5.0 15.0 0.00 0.01 0.01 53 1009.2
20260903201534 96 201 6.0 17.0 0.00 0.01 0.01 52 1009.2
20260903201032 96 152 6.0 17.0 0.00 0.01 0.01 52 1009.2
20260903200626 96 189 4.0 12.0 0.00 0.01 0.01 53 1009.3
20260903200058 96 123 7.0 17.0 0.00 0.01 0.01 53 1009.3
20260903195533 96 173 6.0 17.0 0.00 0.01 0.01 53 1009.4
20260903195048 96 214 5.0 15.0 0.00 0.01 0.01 52 1009.4
20260903194544 95 212 6.0 16.0 0.00 0.01 0.01 53 1009.5
20260903194102 95 189 7.0 15.0 0.00 0.01 0.01 51 1009.6
20260903193557 95 170 4.0 12.0 0.00 0.01 0.01 51 1009.6
20260903193032 95 196 3.0 15.0 0.00 0.01 0.01 51 1009.7
20260903192548 95 187 6.0 15.0 0.00 0.01 0.01 53 1009.7
20260903192043 95 186 6.0 13.0 0.00 0.01 0.01 52 1009.8
20260903191538 95 190 6.0 12.0 0.00 0.01 0.01 53 1009.9
20260903191054 95 184 3.0 16.0 0.00 0.01 0.01 54 1009.9
20260903190605 94 179 7.0 16.0 0.00 0.01 0.01 53 1010.0
20260903190059 94 207 4.0 11.0 0.00 0.01 0.01 56 1010.0
20260903185534 94 201 3.0 8.0 0.00 0.01 0.01 58 1010.0
20260903185050 93 200 4.0 11.0 0.00 0.01 0.01 58 1010.2
20260903184547 93 181 5.0 11.0 0.00 0.01 0.01 58 1010.3
20260903184048 93 210 3.0 9.0 0.00 0.01 0.01 60 1010.4
20260903183544 92 120 2.0 7.0 0.00 0.01 0.01 60 1010.4
20260903183100 92 184 4.0 10.0 0.00 0.01 0.01 61 1010.5
20260903182535 91 186 4.0 10.0 0.00 0.01 0.01 63 1010.5
20260903182032 91 202 3.0 10.0 0.00 0.01 0.01 62 1010.6
20260903181610 91 203 5.0 10.0 0.00 0.01 0.01 61 1010.7
20260903181107 91 208 5.0 14.0 0.00 0.01 0.01 62 1010.8
20260903180554 90 188 6.0 14.0 0.00 0.01 0.01 62 1010.8
20260903180031 90 125 2.0 10.0 0.00 0.01 0.01 63 1010.8
20260903175543 89 152 4.0 10.0 0.00 0.01 0.01 64 1010.8
20260903175101 89 120 4.0 8.0 0.00 0.01 0.01 63 1010.8
20260903174537 88 200 3.0 8.0 0.00 0.01 0.01 63 1010.9
20260903174033 88 203 2.0 7.0 0.00 0.01 0.01 66 1010.9
20260903173550 88 202 3.0 9.0 0.00 0.01 0.01 65 1011.0
20260903173044 87 174 3.0 9.0 0.00 0.01 0.01 67 1011.0
20260903172539 87 195 3.0 9.0 0.00 0.01 0.01 67 1011.0
20260903172035 86 193 3.0 6.0 0.00 0.01 0.01 67 1011.1
20260903171531 85 195 2.0 6.0 0.00 0.01 0.01 71 1011.4
20260903171046 85 210 3.0 5.0 0.00 0.01 0.01 70 1011.5
20260903170555 84 204 1.0 7.0 0.00 0.01 0.01 71 1011.4
20260903170031 84 206 2.0 4.0 0.00 0.01 0.01 71 1011.3
20260903165548 84 177 1.0 4.0 0.00 0.01 0.01 71 1011.1
20260903165043 83 178 2.0 4.0 0.00 0.01 0.01 72 1011.1
20260903164541 83 179 1.0 4.0 0.00 0.01 0.01 72 1011.1
20260903164055 83 118 2.0 4.0 0.00 0.01 0.01 71 1011.1
20260903163535 82 117 2.0 4.0 0.00 0.01 0.01 71 1011.2
20260903163052 83 115 2.0 4.0 0.00 0.01 0.01 71 1011.2
20260903162548 83 115 2.0 4.0 0.00 0.01 0.01 70 1011.4
20260903162044 83 110 2.0 4.0 0.00 0.01 0.01 70 1011.5
20260903161600 83 198 1.0 3.0 0.00 0.01 0.01 69 1011.6
20260903161036 83 200 1.0 3.0 0.00 0.01 0.01 71 1011.5
20260903160607 82 200 1.0 3.0 0.00 0.01 0.01 71 1011.5
20260903160044 82 203 1.0 3.0 0.00 0.01 0.01 73 1011.4
20260903155601 82 203 2.0 3.0 0.00 0.01 0.01 72 1011.4
20260903155037 81 207 1.0 2.0 0.00 0.01 0.01 73 1011.7
20260903154534 81 207 0.0 3.0 0.00 0.01 0.01 73 1011.7
20260903154111 81 207 1.0 3.0 0.00 0.01 0.01 72 1011.6
20260903153545 81 208 1.0 2.0 0.00 0.01 0.01 73 1011.6
20260903153044 81 208 0.0 2.0 0.00 0.01 0.01 72 1011.7
20260903152538 81 208 1.0 3.0 0.00 0.01 0.01 73 1011.7
20260903152032 80 128 1.0 3.0 0.00 0.01 0.01 73 1011.6
20260903151549 80 127 2.0 4.0 0.00 0.01 0.01 73 1011.4
20260903151107 80 127 2.0 4.0 0.00 0.01 0.01 72 1011.3
20260903150555 80 205 2.0 3.0 0.00 0.01 0.01 73 1011.4
20260903150032 80 205 1.0 3.0 0.00 0.01 0.01 74 1011.4
20260903145548 80 206 1.0 4.0 0.00 0.01 0.01 73 1011.4
20260903145045 79 176 2.0 4.0 0.00 0.01 0.01 73 1011.3
20260903144540 79 179 1.0 4.0 0.00 0.01 0.01 73 1011.1
20260903144036 80 134 2.0 5.0 0.00 0.01 0.01 72 1011.2
20260903143613 80 147 2.0 5.0 0.00 0.01 0.01 73 1011.2
20260903143047 80 161 3.0 5.0 0.00 0.01 0.01 74 1011.2
20260903142543 80 167 2.0 4.0 0.00 0.01 0.01 74 1011.3
20260903142044 80 167 3.0 4.0 0.00 0.01 0.01 73 1011.2
20260903141539 80 168 2.0 4.0 0.00 0.01 0.01 72 1011.3
20260903141037 80 173 2.0 3.0 0.00 0.01 0.01 72 1011.3
20260903140610 80 173 2.0 3.0 0.00 0.01 0.01 72 1011.4
20260903140041 79 173 2.0 3.0 0.00 0.01 0.01 73 1011.5
20260903135537 79 173 2.0 4.0 0.00 0.01 0.01 74 1011.4
20260903135032 78 174 2.0 4.0 0.00 0.01 0.01 74 1011.4
20260903134549 78 174 2.0 3.0 0.00 0.01 0.01 75 1011.4
20260903134045 78 175 2.0 3.0 0.00 0.01 0.01 75 1011.5
20260903133539 78 175 2.0 2.0 0.00 0.01 0.01 76 1011.4
20260903133034 78 174 2.0 3.0 0.00 0.01 0.01 76 1011.4
20260903132531 78 175 2.0 4.0 0.00 0.01 0.01 76 1011.4
20260903132047 78 175 0.0 4.0 0.00 0.01 0.01 75 1011.6
20260903131542 77 175 2.0 3.0 0.00 0.01 0.01 76 1011.4
20260903131039 77 175 1.0 3.0 0.00 0.01 0.01 77 1011.5
20260903130611 77 175 1.0 4.0 0.00 0.01 0.01 77 1011.7
20260903130044 77 165 3.0 4.0 0.00 0.01 0.01 77 1011.4
20260903125544 78 192 2.0 3.0 0.00 0.01 0.01 76 1011.5
20260903125039 78 192 1.0 2.0 0.00 0.01 0.01 76 1011.6
20260903124536 78 192 1.0 2.0 0.00 0.01 0.01 76 1011.6
20260903124033 78 192 0.0 1.0 0.00 0.01 0.01 75 1011.7
20260903123548 78 192 0.0 3.0 0.00 0.01 0.01 74 1011.5
20260903123042 78 192 1.0 3.0 0.00 0.01 0.01 74 1011.5
20260903122559 78 192 1.0 2.0 0.00 0.01 0.01 74 1011.2
20260903122033 78 192 2.0 3.0 0.00 0.01 0.01 76 1011.2
20260903121550 78 192 2.0 3.0 0.00 0.01 0.01 75 1011.1
20260903121046 78 193 0.0 2.0 0.00 0.01 0.01 75 1011.2
20260903120615 78 193 1.0 1.0 0.00 0.01 0.01 75 1011.1
20260903120051 78 193 0.0 3.0 0.00 0.01 0.01 74 1011.1
20260903115548 79 193 1.0 3.0 0.00 0.01 0.01 72 1011.1
20260903115045 78 193 1.0 3.0 0.00 0.01 0.01 72 1010.9
20260903114540 79 193 0.0 3.0 0.00 0.01 0.01 72 1010.8
20260903114039 79 193 1.0 3.0 0.00 0.01 0.01 71 1010.8
20260903113554 79 193 1.0 6.0 0.00 0.01 0.01 71 1010.8
20260903113050 79 197 2.0 6.0 0.00 0.01 0.01 72 1010.8
20260903112545 78 196 3.0 6.0 0.00 0.01 0.01 72 1010.7
20260903112042 78 188 1.0 4.0 0.00 0.01 0.01 73 1010.7
20260903111540 78 194 1.0 6.0 0.00 0.01 0.01 74 1010.7
20260903111038 78 195 2.0 6.0 0.00 0.01 0.01 74 1010.7
20260903110632 78 200 2.0 6.0 0.00 0.01 0.01 74 1010.7
20260903110044 78 181 2.0 7.0 0.00 0.01 0.01 74 1010.8
20260903105559 77 199 1.0 6.0 0.00 0.01 0.01 74 1010.8
20260903105055 77 200 2.0 6.0 0.00 0.01 0.01 75 1010.8
20260903104611 77 186 1.0 4.0 0.00 0.01 0.01 75 1010.8
20260903104048 77 181 0.0 6.0 0.00 0.01 0.01 75 1010.8
20260903103544 77 181 2.0 6.0 0.00 0.01 0.01 75 1010.9
20260903103041 77 189 1.0 4.0 0.00 0.01 0.01 75 1011.0
20260903102557 78 188 1.0 4.0 0.00 0.01 0.01 74 1010.9
20260903102033 78 189 2.0 6.0 0.01 0.01 0.01 73 1010.8
20260903101548 78 190 3.0 7.0 0.01 0.01 0.01 73 1010.7
20260903101044 78 192 3.0 7.0 0.01 0.01 0.01 73 1010.6
20260903100551 78 175 2.0 8.0 0.01 0.01 0.01 74 1010.5
20260903100048 78 205 2.0 7.0 0.01 0.01 0.01 75 1010.6
20260903095544 77 195 3.0 6.0 0.01 0.01 0.01 75 1010.6
20260903095059 77 187 2.0 5.0 0.01 0.01 0.01 77 1010.6
20260903094535 77 186 2.0 5.0 0.01 0.01 0.01 77 1010.6
20260903094032 77 184 2.0 5.0 0.01 0.01 0.01 77 1010.7
20260903093548 77 184 1.0 2.0 0.01 0.01 0.01 77 1010.8
20260903093043 77 184 1.0 5.0 0.01 0.01 0.01 77 1010.7
20260903092539 78 184 2.0 6.0 0.01 0.01 0.01 75 1010.7
20260903092034 79 197 2.0 6.0 0.00 0.00 0.00 72 1010.7
20260903091534 80 204 2.0 8.0 0.00 0.00 0.00 71 1010.7
20260903091031 80 181 4.0 8.0 0.00 0.00 0.00 70 1010.7
20260903090603 80 188 1.0 4.0 0.00 0.00 0.00 70 1010.7
20260903090038 80 188 2.0 4.0 0.00 0.00 0.00 69 1010.8
20260903085553 80 189 1.0 6.0 0.00 0.00 0.00 69 1010.7
20260903085048 80 205 2.0 8.0 0.00 0.00 0.00 68 1010.8
20260903084544 81 188 3.0 8.0 0.00 0.00 0.00 68 1010.8
20260903084040 81 194 2.0 8.0 0.00 0.00 0.00 67 1010.8
20260903083537 81 192 4.0 8.0 0.00 0.00 0.00 66 1010.8
20260903083053 81 196 3.0 7.0 0.00 0.00 0.00 66 1010.8
20260903082549 81 191 3.0 13.0 0.00 0.00 0.00 65 1010.8
20260903082045 81 212 3.0 13.0 0.00 0.00 0.00 65 1010.8
20260903081542 81 195 2.0 11.0 0.00 0.00 0.00 65 1010.7
20260903081059 82 194 6.0 11.0 0.00 0.00 0.00 65 1010.7
20260903080610 82 200 3.0 8.0 0.00 0.00 0.00 64 1010.7
20260903080045 82 195 3.0 8.0 0.00 0.00 0.00 64 1010.8
20260903075600 82 195 3.0 10.0 0.00 0.00 0.00 64 1010.7
20260903075036 82 89 3.0 11.0 0.00 0.00 0.00 64 1010.8
20260903074532 82 189 2.0 7.0 0.00 0.00 0.00 64 1010.8
20260903074048 82 186 3.0 6.0 0.00 0.00 0.00 65 1010.8
20260903073545 82 154 3.0 8.0 0.00 0.00 0.00 64 1010.8
20260903073101 82 195 2.0 10.0 0.00 0.00 0.00 64 1010.8
20260903072537 82 202 3.0 9.0 0.00 0.00 0.00 64 1010.8
20260903072053 82 168 4.0 9.0 0.00 0.00 0.00 64 1010.8
20260903071533 82 175 2.0 8.0 0.00 0.00 0.00 64 1010.8
20260903071048 82 191 2.0 9.0 0.00 0.00 0.00 64 1010.7
20260903070615 82 152 2.0 9.0 0.00 0.00 0.00 64 1010.8
20260903070032 83 197 3.0 9.0 0.00 0.00 0.00 63 1010.8
20260903065609 83 200 3.0 9.0 0.00 0.00 0.00 63 1010.8
20260903065045 83 184 2.0 6.0 0.00 0.00 0.00 63 1010.8
20260903064540 83 179 2.0 6.0 0.00 0.00 0.00 63 1010.8
20260903064037 83 170 2.0 10.0 0.00 0.00 0.00 62 1010.8
20260903063532 84 205 2.0 9.0 0.00 0.00 0.00 62 1010.8
20260903063048 84 203 3.0 9.0 0.00 0.00 0.00 62 1010.9
20260903062606 84 188 3.0 8.0 0.00 0.00 0.00 62 1010.9
20260903062103 84 183 3.0 7.0 0.00 0.00 0.00 62 1010.9
20260903061537 84 185 3.0 11.0 0.00 0.00 0.00 62 1010.9
20260903061035 84 188 4.0 11.0 0.00 0.00 0.00 62 1010.9
20260903060606 84 192 4.0 11.0 0.00 0.00 0.00 62 1010.9
20260903060039 84 181 3.0 11.0 0.00 0.00 0.00 62 1010.9
20260903055537 84 175 5.0 10.0 0.00 0.00 0.00 62 1010.9
20260903055031 84 153 3.0 8.0 0.00 0.00 0.00 62 1010.8
20260903054609 84 188 4.0 8.0 0.00 0.00 0.00 62 1010.9
20260903054106 84 193 2.0 11.0 0.00 0.00 0.00 62 1010.9
20260903053603 84 193 4.0 11.0 0.00 0.00 0.00 62 1010.9
20260903053037 84 189 3.0 8.0 0.00 0.00 0.00 62 1010.8
20260903052534 84 193 3.0 8.0 0.00 0.00 0.00 62 1010.8
20260903052051 84 186 2.0 10.0 0.00 0.00 0.00 62 1010.8
20260903051609 84 221 3.0 10.0 0.00 0.00 0.00 62 1010.8
20260903051044 84 179 3.0 9.0 0.00 0.00 0.00 62 1010.8
20260903050552 84 188 4.0 9.0 0.00 0.00 0.00 62 1010.8
20260903050029 84 176 3.0 7.0 0.00 0.00 0.00 62 1010.9
20260903045557 84 198 3.0 8.0 0.00 0.00 0.00 62 1010.8
20260903045037 84 173 2.0 8.0 0.00 0.00 0.00 62 1010.9
20260903044532 84 181 2.0 8.0 0.00 0.00 0.00 62 1010.9
20260903044111 84 202 2.0 9.0 0.00 0.00 0.00 62 1010.9
20260903043544 84 183 3.0 9.0 0.00 0.00 0.00 62 1010.9
20260903043041 84 162 2.0 5.0 0.00 0.00 0.00 62 1010.9
20260903042536 84 153 2.0 8.0 0.00 0.00 0.00 62 1010.8
20260903042052 84 162 2.0 8.0 0.00 0.00 0.00 62 1010.8
20260903041535 84 174 2.0 4.0 0.00 0.00 0.00 62 1010.8
20260903041033 84 171 2.0 4.0 0.00 0.00 0.00 63 1010.8